[[{"header":{"parameterUnit":"m.s-1","parameterCategory":1,"la1":30.2991,"la2":30.254,"lo1":-89.0895,"lo2":-89.0444,"dy":0.0017,"dx":0.0017,"nx":28,"ny":28,"refTime":"2023-06-21T21:00:00:Z","depth":0,"parameterNumber":2,"parameterNumberName":"U-component_of_WINDS"},"data":[0,0,0,0,0,0,0,0,0,0,0,0,0,0,0,0,0,0,0,0,0,0,0,0,0,0,0,0,0,0,0,0,0,0,0,0,0,0,0,0,0,0,0,0,0,0,0,0,0,0,0,0,0,0,0,0,0,0,3.7637,3.7638,0,3.7718,3.7719,3.772,3.7595,3.759,3.7586,3.7582,3.7669,3.7675,3.7681,0,0,0,0,0,0,0,0,0,0,0,0,0,3.7378,3.7383,3.7637,3.7638,3.7639,3.7718,3.7719,3.772,3.7595,3.759,3.7585,3.758,3.7666,3.7674,3.7682,0,0,0,0,0,0,0,0,0,0,0,0,0,3.7478,3.7385,3.7637,3.7586,3.7583,3.7718,3.7719,3.7721,3.7597,3.759,3.7583,3.7577,3.7664,3.7673,3.7683,3.7872,0,0,3.7712,3.7716,0,0,0,0,0,0,0,0,3.7472,3.7488,3.7593,3.759,3.7586,3.7639,3.7659,3.7772,3.7598,3.7591,3.7582,3.7574,3.7664,3.7674,3.7703,3.7876,3.788,3.7713,3.7718,3.7723,3.7725,0,0,0,0,0,0,0,3.7466,3.7483,3.7669,3.7594,3.759,3.7561,3.7568,3.768,3.7664,3.7591,3.7583,3.7594,3.7661,3.7694,3.7704,3.7881,3.7712,3.7721,3.7727,3.7731,3.8214,3.8221,0,0,0,0,0,0,3.7464,3.7478,3.7667,3.7672,3.7512,3.7571,3.7578,3.7629,3.7662,3.7661,3.7599,3.7588,3.7681,3.7693,3.7707,3.793,3.7722,3.7731,3.7737,3.8207,3.8215,3.8223,0,0,0,0,0,0,3.7459,3.7482,3.7663,3.7573,3.7593,3.7582,3.764,3.7634,3.7667,3.7668,3.7665,3.7636,3.7676,3.7693,3.7832,3.7932,3.7736,3.7744,3.8198,3.821,3.8219,3.8379,0,0,0,0,0,0,3.7452,3.7481,3.7552,3.7575,3.7599,3.7786,3.7646,3.764,3.7683,3.7669,3.7701,3.77,3.7673,3.7818,3.7841,3.7941,3.7752,3.8189,3.8203,3.8216,3.8365,3.8394,3.8419,0,0,0,0,0,3.7444,3.7595,3.7557,3.758,3.7687,3.7792,3.7806,3.777,3.7692,3.7763,3.7764,3.7699,3.7917,3.7833,3.7858,3.7963,3.8183,3.8199,3.8215,3.8353,3.8389,3.8419,0,0,0,0,0,0,3.7585,3.7597,3.7555,3.7718,3.7755,3.7771,3.786,3.7809,3.787,3.7854,3.7808,3.7816,3.7965,3.7978,3.7884,3.8148,3.8037,3.8059,3.8134,3.8167,3.8194,3.8187,3.776,0,0,0,0,0,3.7636,3.7719,3.7725,3.7869,3.7889,3.7872,3.7917,3.7886,3.7923,3.7938,3.7949,3.7988,3.8065,3.8117,3.8188,3.8367,3.8372,3.8451,3.8478,3.85,3.8519,3.8614,3.8649,3.8276,3.8276,3.8275,0,0,3.774,3.7757,3.7812,3.7898,3.7922,3.8011,3.7886,3.7985,3.805,3.7953,3.8084,3.8094,3.8135,3.8294,3.8364,3.8309,3.8624,3.8521,3.8538,3.8545,3.8634,3.867,3.8701,3.8287,3.8285,3.8283,0,0,3.7975,3.7997,3.8118,3.8146,3.8185,3.8173,3.8202,3.8226,3.8228,3.8359,3.8288,3.8366,3.85,3.8532,3.8566,3.8814,3.8756,3.8839,3.8979,3.9073,3.9102,3.9128,3.9216,3.9248,3.8858,3.8859,3.8859,0,3.8101,3.8229,3.8187,3.8291,3.833,3.8246,3.8369,3.8399,3.846,3.849,3.8427,3.8593,3.8615,3.878,3.8841,3.8871,3.8904,3.8834,3.9101,3.9127,3.915,3.9233,3.9267,3.8868,3.8867,3.8866,3.8865,0,3.8381,3.8472,3.8566,3.8625,3.8676,3.8789,3.8765,3.8821,3.8787,3.8781,3.8915,3.8939,3.9013,3.905,3.9018,3.9211,3.9175,3.9108,3.8996,3.9196,3.9273,3.9305,3.8882,3.8878,3.8876,3.8873,0,0,3.8707,3.8742,3.8777,3.8803,3.8841,3.891,3.902,3.9092,3.9141,3.9186,3.9277,3.9393,3.933,3.9369,3.934,3.9422,3.9616,3.9344,3.9344,3.9393,3.983,3.988,3.9918,3.9579,3.9585,3.959,3.9827,0,3.894,3.9128,3.9094,3.9277,3.936,3.9282,3.9377,3.9412,3.941,3.9481,3.948,3.9562,3.9474,3.9497,3.9574,3.9576,3.9703,3.9559,3.9663,3.9667,3.9654,3.9958,4.0011,4.0234,3.9857,3.9862,3.9866,0,3.9237,3.9293,3.9484,3.9508,3.9541,3.9628,3.969,3.976,3.9797,3.979,3.9834,3.9789,3.9899,3.9787,3.9938,3.984,3.9881,3.9889,3.9897,3.9904,3.9778,3.9973,4.0304,4.0337,3.9913,3.9909,3.9906,0,3.9454,3.9577,3.9707,3.9732,3.9764,3.9826,3.9843,3.9873,3.9919,3.9974,4.0003,4.0072,4.0109,4.0163,4.0139,4.0059,4.0295,4.018,4.0292,4.0293,4.0344,4.0341,4.0685,4.0374,4.0373,4.0372,4.0372,0,3.9718,3.9838,3.9805,3.9885,4.0017,3.9977,4.011,4.0117,4.0145,4.0226,4.0164,4.0241,4.0204,4.0279,4.0261,4.0389,4.0407,4.0405,4.0398,4.041,4.041,4.0435,4.0418,4.0381,4.0379,4.0378,4.0376,0,3.9982,3.9965,4.0101,4.012,4.0128,4.0224,4.0241,4.0316,4.031,4.0413,4.0435,4.0426,4.0511,4.0492,4.0586,4.0574,4.0734,4.0709,4.0721,4.0714,4.0827,4.0817,4.1198,4.1246,4.0905,4.0908,4.0911,0,4.015,4.024,4.0269,4.0318,4.0339,4.0419,4.0464,4.043,4.048,4.0529,4.0599,4.0678,4.0739,4.088,4.0882,4.0954,4.0929,4.1058,4.0939,4.0948,4.093,4.0924,4.0932,4.1081,4.1085,4.1088,4.1091,0,4.0451,4.0438,4.0505,4.057,4.0626,4.0676,4.072,4.0764,4.0733,4.0793,4.0879,4.0926,4.1022,4.1101,4.1168,4.1185,4.1134,4.1129,4.1158,4.117,4.1172,4.1171,4.0784,4.1119,4.1117,4.1115,4.1113,4.1112,4.0671,4.0747,4.0779,4.0856,4.0886,4.0929,4.1,4.1003,4.1073,4.1147,4.1123,4.1221,4.1257,4.134,4.1366,4.1442,4.1394,4.1437,4.1448,4.1459,4.1472,4.1162,4.1455,4.1454,4.1453,4.1452,4.1452,0,4.0967,4.0984,4.1055,4.1118,4.118,4.1125,4.1171,4.1226,4.1313,4.135,4.1412,4.151,4.1588,4.1597,4.1669,4.1729,4.1707,4.1749,4.1744,4.1749,4.1512,4.1478,4.1766,4.1766,4.1766,4.1766,4.1766,4.1765,4.1128,4.1254,4.1245,4.1385,4.1401,4.1496,4.1527,4.1566,4.1595,4.1708,4.1771,4.1776,4.1803,4.1877,4.1946,4.1947,4.1976,4.2027,4.2019,4.1797,4.1766,4.1736,4.1704,4.2034,4.2035,4.2249,4.2251,4.2253]},{"header":{"parameterUnit":"m.s-1","parameterCategory":1,"la1":30.2991,"la2":30.254,"lo1":-89.0895,"lo2":-89.0444,"dy":0.0017,"dx":0.0017,"nx":28,"ny":28,"refTime":"2023-06-21T21:00:00:Z","depth":0,"parameterNumber":3,"parameterNumberName":"V-component_of_WINDS"},"data":[0,0,0,0,0,0,0,0,0,0,0,0,0,0,0,0,0,0,0,0,0,0,0,0,0,0,0,0,0,0,0,0,0,0,0,0,0,0,0,0,0,0,0,0,0,0,0,0,0,0,0,0,0,0,0,0,0,0,1.5175,1.5175,0,1.5263,1.5264,1.5265,1.5257,1.5255,1.5254,1.5253,1.5345,1.5348,1.5352,0,0,0,0,0,0,0,0,0,0,0,0,0,1.5,1.5004,1.5174,1.5176,1.5177,1.5262,1.5264,1.5265,1.5257,1.5255,1.5253,1.5252,1.5344,1.5348,1.5352,0,0,0,0,0,0,0,0,0,0,0,0,0,1.5081,1.5005,1.5174,1.5183,1.5185,1.5262,1.5264,1.5265,1.5257,1.5255,1.5253,1.5251,1.5342,1.5348,1.5353,1.5428,0,0,1.537,1.5373,0,0,0,0,0,0,0,0,1.5076,1.5087,1.5181,1.5182,1.5184,1.5246,1.5236,1.532,1.5258,1.523,1.5252,1.525,1.5314,1.5322,1.5343,1.5433,1.5437,1.5371,1.5374,1.5376,1.5378,0,0,0,0,0,0,0,1.5071,1.5084,1.5209,1.5182,1.5184,1.5183,1.5192,1.5252,1.5282,1.5232,1.5232,1.5242,1.5315,1.5337,1.5345,1.5438,1.5371,1.5375,1.5379,1.5381,1.5593,1.5595,0,0,0,0,0,0,1.5063,1.5079,1.5207,1.5212,1.5124,1.5187,1.5198,1.5229,1.5281,1.5288,1.5244,1.5241,1.5329,1.5338,1.5348,1.5439,1.5376,1.5382,1.5385,1.5591,1.5593,1.5596,0,0,0,0,0,0,1.5059,1.5074,1.5203,1.5145,1.5162,1.5193,1.5227,1.5231,1.5254,1.529,1.5296,1.5261,1.5328,1.534,1.5408,1.5442,1.5384,1.5389,1.5588,1.5591,1.5594,1.5622,0,0,0,0,0,0,1.5054,1.5073,1.5102,1.5146,1.5165,1.5261,1.5229,1.5235,1.5264,1.5261,1.5308,1.5314,1.5327,1.54,1.5414,1.5449,1.5394,1.5585,1.5589,1.5593,1.5618,1.5625,1.5632,0,0,0,0,0,1.5048,1.5107,1.5104,1.5119,1.5201,1.5263,1.5274,1.5287,1.5266,1.5296,1.5319,1.5313,1.5436,1.5407,1.5422,1.546,1.5583,1.5588,1.5593,1.5615,1.5624,1.5632,0,0,0,0,0,0,1.5067,1.5113,1.511,1.5184,1.522,1.5262,1.5299,1.5297,1.5339,1.5336,1.535,1.5361,1.5429,1.5451,1.5418,1.5534,1.5507,1.5515,1.5518,1.5527,1.5534,1.5527,1.5398,0,0,0,0,0,1.508,1.5126,1.5164,1.5226,1.5244,1.5268,1.5296,1.5302,1.534,1.5355,1.5383,1.5421,1.5468,1.5498,1.5544,1.5621,1.563,1.5654,1.5661,1.5667,1.5674,1.5715,1.5726,1.5612,1.5612,1.5612,0,0,1.5107,1.5138,1.5166,1.523,1.5259,1.5306,1.5281,1.5333,1.5368,1.5364,1.5429,1.5451,1.5493,1.5565,1.5599,1.5586,1.5707,1.5673,1.5677,1.5682,1.5721,1.5732,1.5742,1.5616,1.5615,1.5615,0,0,1.5181,1.5209,1.5263,1.5291,1.5334,1.535,1.5363,1.5405,1.5419,1.5484,1.5481,1.5524,1.5605,1.5635,1.5661,1.5744,1.574,1.5758,1.5796,1.5836,1.5844,1.5852,1.5882,1.5892,1.5765,1.5765,1.5765,0,1.5209,1.528,1.5292,1.5343,1.5371,1.5368,1.5423,1.545,1.5506,1.5525,1.551,1.561,1.5639,1.5718,1.5737,1.5759,1.5774,1.5753,1.5842,1.585,1.5858,1.5886,1.5897,1.5767,1.5767,1.5767,1.5766,0,1.5313,1.5362,1.5401,1.5453,1.5486,1.5539,1.5558,1.559,1.5593,1.5611,1.5677,1.5711,1.5762,1.5781,1.5786,1.5861,1.5851,1.5839,1.5811,1.587,1.5897,1.5908,1.577,1.5769,1.5769,1.5768,0,0,1.5403,1.5459,1.5473,1.5496,1.5542,1.5581,1.5633,1.5683,1.5709,1.5747,1.5792,1.5859,1.5848,1.5877,1.5885,1.592,1.5982,1.5903,1.5904,1.5916,1.6066,1.6075,1.6087,1.598,1.5982,1.5983,1.6062,0,1.548,1.5573,1.5584,1.5666,1.5711,1.5708,1.5754,1.5787,1.5804,1.5845,1.5864,1.5912,1.5893,1.5911,1.5945,1.5967,1.6013,1.5962,1.6021,1.6023,1.6011,1.6101,1.6111,1.6184,1.6073,1.6075,1.6076,0,1.5584,1.5624,1.571,1.5749,1.5768,1.5809,1.5854,1.5894,1.5931,1.5941,1.5973,1.5975,1.603,1.5999,1.6074,1.6039,1.6064,1.6078,1.6081,1.6088,1.6053,1.611,1.6208,1.6219,1.6092,1.6091,1.609,0,1.564,1.5715,1.5776,1.5796,1.5843,1.5871,1.5892,1.5927,1.5956,1.5996,1.6014,1.606,1.6085,1.6121,1.6136,1.6112,1.6209,1.6181,1.6219,1.6219,1.624,1.6239,1.6344,1.6256,1.6256,1.6256,1.6256,0,1.5726,1.5779,1.5802,1.5839,1.5898,1.591,1.5969,1.5988,1.6019,1.6061,1.6061,1.61,1.6117,1.6159,1.6171,1.623,1.6242,1.6251,1.6254,1.6252,1.625,1.6268,1.6264,1.6259,1.6258,1.6258,1.6257,0,1.5799,1.5816,1.5882,1.592,1.5931,1.5973,1.6006,1.6042,1.6058,1.611,1.6123,1.6149,1.6198,1.6216,1.6276,1.6284,1.6353,1.6351,1.634,1.6341,1.6378,1.6374,1.6498,1.6515,1.6417,1.6417,1.6418,0,1.5853,1.5893,1.5935,1.5962,1.5983,1.6028,1.6056,1.6069,1.6099,1.6143,1.6174,1.6223,1.6262,1.634,1.6364,1.641,1.641,1.645,1.6417,1.6412,1.641,1.6407,1.6411,1.6456,1.6457,1.6458,1.6459,0,1.5946,1.5952,1.5993,1.6037,1.607,1.6106,1.614,1.6162,1.618,1.6214,1.6263,1.6293,1.6354,1.6402,1.6448,1.647,1.6467,1.6469,1.648,1.6478,1.647,1.6474,1.6357,1.6466,1.6465,1.6465,1.6464,1.6464,1.6011,1.6046,1.6081,1.6126,1.6153,1.6184,1.622,1.624,1.6281,1.633,1.6335,1.6388,1.6423,1.6485,1.6509,1.655,1.654,1.6556,1.656,1.6564,1.6567,1.6463,1.6559,1.6559,1.6559,1.6558,1.6558,0,1.6104,1.6126,1.6167,1.6214,1.6249,1.6243,1.628,1.631,1.6356,1.6389,1.6427,1.6483,1.6529,1.6557,1.6603,1.6631,1.6631,1.6642,1.6641,1.6646,1.6574,1.6559,1.6642,1.6642,1.6642,1.6642,1.6642,1.6642,1.6157,1.6216,1.6226,1.6298,1.6319,1.637,1.6392,1.6421,1.6447,1.6509,1.6547,1.6564,1.6595,1.6643,1.6684,1.6691,1.6708,1.6721,1.6727,1.6659,1.6651,1.6643,1.6629,1.6724,1.6725,1.6795,1.6795,1.6796]}]]